TimeAKDT,TemperatureF,Dew PointF,Humidity,Sea Level PressureIn,VisibilityMPH,Wind Direction,Wind SpeedMPH,Gust SpeedMPH,PrecipitationIn,Events,Conditions,WindDirDegrees,DateUTC
12:56 AM,35.1,30.9,85,29.81,10.0,East,17.3,21.9,0.01,Rain,Light Rain,80,2013-03-26 08:56:00
1:52 AM,35.6,32.0,87,29.79,10.0,East,18.4,23.0,0.00,Rain,Light Rain,80,2013-03-26 09:52:00
1:56 AM,35.1,32.0,89,29.81,9.0,East,18.4,25.3,0.00,Rain,Light Rain,80,2013-03-26 09:56:00
2:56 AM,35.1,30.9,85,29.81,10.0,East,20.7,-,0.01,Rain,Light Rain,90,2013-03-26 10:56:00
3:56 AM,35.1,30.9,85,29.82,7.0,East,19.6,-,0.01,,Overcast,80,2013-03-26 11:56:00
4:56 AM,34.0,30.9,89,29.82,6.0,East,20.7,-,0.01,Snow,Light Snow,80,2013-03-26 12:56:00
5:56 AM,34.0,30.9,89,29.83,9.0,East,21.9,26.5,0.00,Rain,Light Rain,80,2013-03-26 13:56:00
6:37 AM,33.8,30.2,87,29.81,4.0,East,19.6,25.3,0.00,,Overcast,80,2013-03-26 14:37:00
6:42 AM,33.8,30.2,87,29.82,4.0,East,16.1,-,0.00,,Overcast,80,2013-03-26 14:42:00
6:56 AM,34.0,30.9,89,29.83,4.0,East,18.4,-,0.00,Rain-Snow,Snow,80,2013-03-26 14:56:00
7:56 AM,34.0,32.0,92,29.85,5.0,East,16.1,-,0.01,Rain-Snow,Snow,80,2013-03-26 15:56:00
8:11 AM,35.6,32.0,87,29.84,4.0,ENE,11.5,-,0.00,Rain-Snow,Snow,70,2013-03-26 16:11:00
8:56 AM,34.0,30.9,89,29.86,4.0,East,21.9,28.8,N/A,Rain-Snow,Light Snow,90,2013-03-26 16:56:00
9:56 AM,35.1,30.9,85,29.88,4.0,East,20.7,26.5,N/A,Rain-Snow,Light Snow,90,2013-03-26 17:56:00
10:56 AM,36.0,32.0,86,29.88,3.0,East,19.6,26.5,N/A,Rain-Snow,Light Snow,80,2013-03-26 18:56:00
11:09 AM,35.6,32.0,87,29.86,6.0,East,18.4,23.0,0.00,Rain-Snow,Light Snow,80,2013-03-26 19:09:00
11:56 AM,36.0,32.0,86,29.88,6.0,East,19.6,24.2,0.00,Rain-Snow,Light Snow,90,2013-03-26 19:56:00
12:56 PM,37.9,32.0,79,29.91,6.0,East,8.1,-,0.01,Rain-Snow,Light Snow,80,2013-03-26 20:56:00
1:56 PM,37.9,33.1,83,29.89,6.0,SE,18.4,25.3,0.01,Rain-Snow,Light Snow,140,2013-03-26 21:56:00
2:08 PM,37.4,33.8,87,29.86,9.0,ESE,16.1,24.2,0.00,Rain-Snow,Light Snow,120,2013-03-26 22:08:00
2:56 PM,37.9,33.1,83,29.86,8.0,East,19.6,31.1,0.00,Rain-Snow,Light Snow,100,2013-03-26 22:56:00
3:16 PM,37.4,32.0,81,29.81,6.0,SE,21.9,33.4,0.00,Rain-Snow,Light Snow,130,2013-03-26 23:16:00
3:56 PM,37.9,33.1,83,29.83,6.0,SE,16.1,-,0.01,Rain-Snow,Light Snow,130,2013-03-26 23:56:00
4:09 PM,37.4,33.8,87,29.82,6.0,SE,16.1,25.3,0.00,Rain-Snow,Light Snow,130,2013-03-27 00:09:00
4:56 PM,37.9,32.0,79,29.83,6.0,SE,13.8,24.2,0.00,Rain-Snow,Light Snow,140,2013-03-27 00:56:00
5:56 PM,37.9,32.0,79,29.83,6.0,SE,24.2,27.6,0.00,Rain-Snow,Light Snow,130,2013-03-27 01:56:00
6:56 PM,37.9,30.9,76,29.82,10.0,SE,18.4,24.2,0.00,,Overcast,140,2013-03-27 02:56:00
7:08 PM,37.4,32.0,81,29.81,10.0,SE,17.3,25.3,N/A,,Overcast,130,2013-03-27 03:08:00
7:23 PM,37.4,32.0,81,29.81,10.0,SE,16.1,24.2,0.00,Rain,Light Rain,130,2013-03-27 03:23:00
7:56 PM,37.9,32.0,79,29.79,10.0,SE,19.6,26.5,0.00,Rain,Light Rain,140,2013-03-27 03:56:00
8:56 PM,37.9,32.0,79,29.76,9.0,SE,23.0,31.1,0.00,Rain,Light Rain,130,2013-03-27 04:56:00
9:56 PM,37.9,33.1,83,29.74,9.0,SE,25.3,32.2,0.01,Rain,Light Rain,130,2013-03-27 05:56:00
10:42 PM,37.4,33.8,87,29.71,10.0,SE,24.2,39.1,0.00,Rain,Light Rain,140,2013-03-27 06:42:00
10:56 PM,37.9,32.0,79,29.72,10.0,SE,25.3,34.5,0.00,Rain,Light Rain,130,2013-03-27 06:56:00
11:56 PM,37.9,32.0,79,29.69,10.0,SE,24.2,34.5,0.00,,Overcast,130,2013-03-27 07:56:00